Regional Weather Roundup
Issued by NWS

Home | Current Version | Previous Version | Text Only | Print | Product List | Glossary Off
Versions: 1 2 3 4 5 6 7 8 9 10 11 12 13 14 15 16 17 18 19 20 21 22 23 24 25 26 27 28 29 30 31 32 33 34 35 36 37 38 39 40 41 42 43 44 45 46 47 48 49 50

000
ASUS45 KCYS 011010
RWRWY

WYOMING REGIONAL WEATHER ROUNDUP
NATIONAL WEATHER SERVICE CHEYENNE WY
300 AM MST SUN MAR 01 2015

NOTE:  "FAIR" INDICATES FEW OR NO CLOUDS BELOW 12,000 FEET
WITH NO SIGNIFICANT WEATHER AND/OR OBSTRUCTIONS TO VISIBILITY.

WYZ001-011100-
YELLOWSTONE NATIONAL PARK

CITY           SKY/WX    TMP DP  RH WIND       PRES   REMARKS
LK YELLOWSTONE   N/A    -12 -17  78 CALM      30.06R
W YELLOWSTONE  NOT AVBL

$$
WYZ002>013-054>058-071-098>099-011100-
NORTHERN WYOMING

CITY           SKY/WX    TMP DP  RH WIND       PRES   REMARKS
JACKSON        FAIR       5   1  85 N20       30.04S WCI -15
CODY           MOCLDY    12   9  85 SW5       30.13S WCI   4
GREYBULL       FAIR      13   6  74 NW5       30.20R WCI   5
WORLAND        CLOUDY    21  10  62 N5        30.18R WCI  15
SHERIDAN       FAIR       2  -3  80 N6        30.16R WCI  -9
BUFFALO        FAIR      11   1  64 CALM      30.10F
GILLETTE       FAIR       7   3  84 W7        30.13S WCI  -5
HULETT         FAIR       9   5  85 MISG      30.14R
NEWCASTLE      FAIR      10   9  92 NW3       30.15S

$$
WYZ014>020-022>026-101>103-011100-
CENTRAL WYOMING

CITY           SKY/WX    TMP DP  RH WIND       PRES   REMARKS
BIG PINEY      FAIR      10   3  73 E3        30.03R
PINEDALE       CLOUDY     7   5  92 W3        30.03R
DUBOIS         CLOUDY    10   5  79 W8        30.01R WCI  -1
LANDER         CLOUDY    16  11  80 S5        30.09S WCI   9
RIVERTON       CLOUDY    16   9  74 SW3       30.11R
CASPER         CLOUDY    13  10  88 CALM      30.11R
DOUGLAS        FLURRIES  15  11  83 CALM      30.13S

$$
WYZ021-027>030-104>119-011100-
SOUTHERN WYOMING

CITY           SKY/WX    TMP DP  RH WIND       PRES   REMARKS
EVANSTON       CLOUDY    19  16  88 E12       29.98R WCI   7
FORT BRIDGER   CLOUDY    19  19 100 SE3       30.03R
ROCK SPRINGS   FAIR       9   5  84 E12       30.04R WCI  -6
DIXON          FLURRIES  19  16  88 W7        30.03R WCI  10
RAWLINS        FAIR       5   0  79 NW8       30.02R WCI  -8
SARATOGA       LGT SNOW  12  10  92 W3        30.00R
LARAMIE        CLOUDY    11   8  88 NW5       29.95R WCI   3
CHEYENNE       LGT SNOW  15  11  83 N5        30.02R FOG     WCI   8
TORRINGTON     CLOUDY    18  12  77 N13       30.14R WCI   5
PINE BLUFFS    FAIR      16  14  93 N5        30.07R WCI   9

$$



USA.gov is the U.S. government's official web portal to all federal, state and local government web resources and services.